User: anonymous   Login
Location: Unspecified
(0.0000°N, 0.0000°E)
Time: 23:34:50
(UTC+00:00)
Language:

USA 97 - Orbit

View from above orbital plane
View from above orbital plane
View from above satellite
View from above satellite

Ground track
Ground track

The orbit data is extracted from the following two-line orbital elements,

1 22915U 93074A   18118.09595869 0.00000000  00000-0  00000-0 0    05
2 22915  11.0011  35.6355 0008874 284.8762  75.0375  0.98528386    02
Epoch (UTC): 28 April 2018 02:18:10
Eccentricity: 0.0008874
inclination: 11.0011°
perigee height: 36244 km
apogee height: 36320 km
right ascension of ascending node: 35.6355°
argument of perigee: 284.8762°
revolutions per day: 0.98528386
mean anomaly at epoch: 75.0375°
orbit number at epoch: 0

The dashed part of the orbit path shows where the satellite is in the earth's shadow,  

DLR